Oceana NAS, VA

7:32 AM EDT on June 19, 2018 (GMT -0400)
Oceana Naval Air Station

Weather History for KNTU - January, 2017

Change the Weather History Date:

Sunday, January 15, 2017

  Actual Average Record
Temperature  
Mean Temperature 40 °F -  
Max Temperature 42 °F 45 °F 73 °F (2007)
Min Temperature 37 °F 29 °F 21 °F (1997)
Degree Days  
Heating Degree Days 26    
Moisture  
Dew Point 35 °F    
Average Humidity 82    
Maximum Humidity 89    
Minimum Humidity 70    
Precipitation  
Precipitation 0.00 in - - ()
Sea Level Pressure  
Sea Level Pressure 30.35 in    
Wind  
Wind Speed 5 mph (North)    
Max Wind Speed 14 mph    
Max Gust Speed 22 mph    
Visibility 10 miles    
Events Rain    
Averages and records for this station are not official NWS values.
T = Trace of Precipitation, MM = Missing Value Source: NWS Daily Summary

Daily Weather History Graph

Daily Weather History Graph

Search for Another Location

Airport or City:

Astronomy

Jan. 15, 2017 Rise Set
Actual Time 7:15 AM EST 5:11 PM EST
Civil Twilight 6:47 AM EST 5:40 PM EST
Nautical Twilight 6:15 AM EST 6:11 PM EST
Astronomical Twilight 5:44 AM EST 6:42 PM EST
Moon 8:53 PM EST (1/15) 9:21 AM EST (1/15)
Length of Visible Light 10h 52m
Length of Day
9h 55m
Waning Gibbous, 87% of the Moon is Illuminated
Jan 15
Waning Gibbous
Jan 19
Last Quarter
Jan 27
New
Feb 3
First Quarter
Feb 10
Full

Hourly Weather History & Observations

Time (EST) Temp. Windchill Dew Point Humidity Pressure Visibility Wind Dir Wind Speed Gust Speed Precip Events Conditions
12:56 AM 39.9 °F - 37.0 °F 89% 30.27 in 10.0 mi Calm Calm - N/A   Overcast
1:23 AM 39.9 °F 37.8 °F 37.0 °F 89% 30.27 in 10.0 mi NNW 3.5 mph - N/A   Overcast
1:56 AM 41.0 °F 39.0 °F 37.0 °F 86% 30.29 in 10.0 mi North 3.5 mph - 0.00 in Rain Light Rain
2:33 AM 41.0 °F 38.0 °F 37.0 °F 86% 30.29 in 10.0 mi North 4.6 mph - 0.00 in   Overcast
2:49 AM 41.0 °F 38.0 °F 37.0 °F 86% 30.29 in 10.0 mi NNE 4.6 mph - 0.00 in   Overcast
2:56 AM 39.9 °F 35.8 °F 37.0 °F 89% 30.30 in 10.0 mi NNE 5.8 mph - 0.00 in   Overcast
3:56 AM 41.0 °F - 37.9 °F 89% 30.30 in 10.0 mi Calm Calm - N/A   Overcast
4:04 AM 41.0 °F - 37.9 °F 89% 30.28 in 10.0 mi Calm Calm - N/A   Overcast
4:56 AM 41.0 °F 39.0 °F 37.9 °F 89% 30.30 in 10.0 mi North 3.5 mph - N/A   Overcast
5:03 AM 41.0 °F 38.0 °F 37.0 °F 86% 30.29 in 10.0 mi North 4.6 mph - N/A   Overcast
5:23 AM 41.0 °F 37.1 °F 37.0 °F 86% 30.30 in 10.0 mi North 5.8 mph - N/A   Overcast
5:56 AM 39.9 °F 36.7 °F 37.0 °F 89% 30.30 in 10.0 mi NNW 4.6 mph - N/A   Overcast
6:25 AM 39.9 °F - 37.0 °F 89% 30.30 in 10.0 mi Calm Calm - N/A   Mostly Cloudy
6:56 AM 37.9 °F 33.5 °F 35.1 °F 89% 30.34 in 10.0 mi NNW 5.8 mph - N/A   Scattered Clouds
7:56 AM 41.0 °F 34.7 °F 37.9 °F 89% 30.35 in 10.0 mi North 10.4 mph - N/A   Overcast
8:33 AM 41.0 °F 34.7 °F 37.0 °F 86% 30.36 in 8.0 mi North 10.4 mph - N/A   Overcast
8:56 AM 41.0 °F 33.5 °F 37.0 °F 86% 30.38 in 8.0 mi North 13.8 mph 21.9 mph N/A   Overcast
9:56 AM 41.0 °F 34.3 °F 36.0 °F 82% 30.40 in 10.0 mi North 11.5 mph - N/A   Overcast
10:20 AM 42.1 °F 36.1 °F 36.0 °F 79% 30.38 in 10.0 mi North 10.4 mph - N/A   Mostly Cloudy
10:56 AM 42.1 °F 35.2 °F 35.1 °F 76% 30.40 in 10.0 mi North 12.7 mph - N/A   Overcast
11:23 AM 42.1 °F 35.7 °F 35.1 °F 76% 30.38 in 10.0 mi North 11.5 mph - N/A   Overcast
11:56 AM 41.0 °F 33.5 °F 34.0 °F 76% 30.38 in 10.0 mi North 13.8 mph - N/A   Overcast
12:56 PM 42.1 °F 34.9 °F 34.0 °F 73% 30.36 in 10.0 mi North 13.8 mph - N/A   Mostly Cloudy
1:12 PM 42.1 °F 36.1 °F 34.0 °F 73% 30.35 in 10.0 mi North 10.4 mph - N/A   Mostly Cloudy
1:56 PM 42.1 °F 35.7 °F 34.0 °F 73% 30.36 in 10.0 mi NNW 11.5 mph - N/A   Mostly Cloudy
2:56 PM 42.1 °F 37.1 °F 33.1 °F 70% 30.35 in 10.0 mi North 8.1 mph - N/A   Mostly Cloudy
3:56 PM 41.0 °F 35.2 °F 32.0 °F 70% 30.36 in 10.0 mi NNW 9.2 mph - N/A   Mostly Cloudy
4:56 PM 39.9 °F 35.8 °F 32.0 °F 73% 30.37 in 10.0 mi North 5.8 mph - N/A   Mostly Cloudy
5:56 PM 39.0 °F - 32.0 °F 76% 30.39 in 10.0 mi Calm Calm - N/A   Mostly Cloudy
6:56 PM 39.0 °F 36.8 °F 32.0 °F 76% 30.40 in 10.0 mi NNW 3.5 mph - N/A   Overcast
7:56 PM 37.9 °F 35.5 °F 32.0 °F 79% 30.40 in 10.0 mi North 3.5 mph - N/A   Mostly Cloudy
8:56 PM 37.9 °F - 33.1 °F 83% 30.40 in 10.0 mi Calm Calm - N/A   Mostly Cloudy
9:56 PM 37.9 °F - 33.1 °F 83% 30.41 in 10.0 mi Calm Calm - N/A   Overcast
10:56 PM 39.9 °F - 35.1 °F 83% 30.41 in 10.0 mi Calm Calm - N/A   Overcast
11:56 PM 39.9 °F 37.8 °F 35.1 °F 83% 30.42 in 10.0 mi NW 3.5 mph - 0.00 in   Overcast